Location: La Silve
(44.2414°N, 5.8889°E)
Time: 05:22:00
(UTC+00:00)

Cosmos 1151 Rocket - Pass Details

Date: 01 December 2020
Orbit: 593 x 615 km, 82.5° (Epoch: 27 January)

Event Time Altitude Azimuth Distance (km) Brightness Sun altitude
Rises 17:05:09 0° 189° (S) 2,830 6.9 -11.6°
Reaches altitude 10° 17:07:21 10° 190° (S) 1,930 6.0 -12.0°
Maximum altitude 17:11:37 83° 276° (W) 606 3.0 -12.7°
Drops below altitude 10° 17:15:55 10° 7° (N) 1,938 5.4 -13.4°
Sets 17:18:08 0° 8° (N) 2,844 6.2 -13.8°
